Flag for Romania Weather past 2 weeks in Timișoara, Romania

Now
66 °F

Clear.


Feels Like: 66 °F
Forecast: 59 / 88 °F
Wind: 6 mph from Northeast

Location: Timisoara Airport

Current Time: Jul 4, 2015 at 1:32:21 AM

Latest Report: Jul 4, 2015 at 1:00 AM


Visibility: 10 mi

Pressure: 30.27 "Hg

Humidity: 68%

Dew point: 55 °F

Location of TimișoaraLocation

Historic Weather in Timișoara — Graph

°F

Timișoara temperature yesterday

Maximum temperature yesterday: 86 °F (at 4:00 PM)
Minimum temperature yesterday: 55 °F (at 5:30 AM)
Average temperature yesterday: 73 °F

Past Weeks' High & Low Weather Summary

 TemperatureHumidityPressure
High86 °F (Jul 2, 4:00 PM)100% (Jun 19, 12:00 AM)30.27 "Hg (Jun 19, 12:00 AM)
Low46 °F (Jun 22, 5:00 AM)19% (Jul 3, 5:30 PM)29.80 "Hg (Jun 19, 4:00 PM)
Average66 °F71%30.03 "Hg
* Reported Midnight between Jun 18 and Jun 19 — Midnight between Jul 3 and Jul 4, Timișoara, Weather by CustomWeather, © 2015

Note: Actual official high and low records may vary slightly from our data, if they occured in-between our weather recording intervals... More about our weather records

Advertising

Timișoara weather history for previous 24 hours

 ConditionsComfort  
Time TempWeatherWind HumidityBarometerVisibility
12:00 AM
Sat, Jul 4
68 °FClear.6 mph64%30.27 "Hg10 mi
11:30 PM
Fri, Jul 3
64 °FClear.6 mph78%30.27 "Hg10 mi
11:00 PM66 °FClear.5 mph73%30.27 "Hg10 mi
10:30 PM68 °FClear.5 mph69%30.27 "Hg10 mi
10:00 PM70 °FSunny.5 mph64%30.27 "Hg10 mi
9:30 PM73 °FSunny.2 mph57%30.24 "Hg10 mi
9:00 PM77 °FSunny.3 mph51%30.24 "Hg10 mi
8:30 PM81 °FSunny.3 mph42%30.24 "Hg10 mi
8:00 PM84 °FPassing clouds.6 mph33%30.24 "HgN/A
7:30 PM84 °FPassing clouds.5 mph29%30.24 "HgN/A
7:00 PM84 °FPassing clouds.7 mph25%30.24 "HgN/A
6:30 PM84 °FPassing clouds.5 mph27%30.24 "HgN/A
6:00 PM86 °FPassing clouds.6 mph24%30.24 "HgN/A
5:30 PM86 °FPassing clouds.7 mph19%30.24 "HgN/A
5:00 PM86 °FSunny.10 mph22%30.24 "Hg10 mi
4:30 PM86 °FPassing clouds.7 mph22%30.24 "HgN/A
4:00 PM86 °FPassing clouds.7 mph22%30.24 "HgN/A
3:30 PM84 °FPassing clouds.7 mph31%30.24 "HgN/A
3:00 PM84 °FSunny.6 mph25%30.27 "Hg10 mi
2:30 PM84 °FPassing clouds.7 mph25%30.27 "HgN/A
2:00 PM84 °FSunny.9 mph33%30.27 "Hg10 mi
1:30 PM82 °FPassing clouds.3 mph35%30.27 "HgN/A
1:00 PM82 °FPassing clouds.5 mph40%30.27 "HgN/A
12:30 PM81 °FPassing clouds.5 mph48%30.27 "HgN/A
12:00 PM79 °FPassing clouds.5 mph51%30.27 "HgN/A
11:30 AM79 °FSunny.2 mph48%30.27 "Hg10 mi
11:00 AM77 °FPassing clouds.5 mph51%30.27 "HgN/A
10:30 AM75 °FPassing clouds.7 mph50%30.27 "HgN/A
10:00 AM75 °FPassing clouds.7 mph54%30.27 "HgN/A
9:30 AM72 °FSunny.7 mph61%30.27 "Hg10 mi
8:30 AM68 °FPassing clouds.3 mph64%30.24 "HgN/A
8:00 AM66 °FPassing clouds.3 mph68%30.24 "HgN/A
7:30 AM64 °FPassing clouds.3 mph78%30.24 "HgN/A
6:30 AM55 °FClear.3 mph94%30.21 "Hg10 mi
6:00 AM55 °FClear.2 mph88%30.21 "Hg10 mi
5:30 AM55 °FCool.3 mph94%30.21 "HgN/A
5:00 AM59 °FClear.2 mph77%30.21 "Hg10 mi
4:30 AM59 °FClear.2 mph82%30.21 "Hg10 mi
4:00 AM61 °FClear.2 mph72%30.21 "Hg10 mi
3:30 AM63 °FPassing clouds.7 mph68%30.21 "HgN/A
3:00 AM63 °FClear.7 mph68%30.21 "Hg10 mi
2:30 AM63 °FMild.7 mph68%30.21 "HgN/A
2:00 AM63 °FClear.7 mph68%30.21 "Hg10 mi
1:30 AM61 °FClear.6 mph72%30.21 "Hg10 mi
1:00 AM63 °FClear.3 mph68%30.21 "Hg10 mi
Weather by CustomWeather, © 2015

See weather overviewHow to use our weather pages